Location: McFarlands Corners
(41.4117°N, 81.3382°W)
Time: 13:50:12
(UTC+00:00)

Courier 1B Rocket - Pass Details

Date: 24 February 2026
Orbit: 920 x 1201 km, 28.2° (Epoch: 10 March)

Event Time Altitude Azimuth Distance (km) Brightness Sun altitude
Rises 20:47:06 0° 212° (SSW) 3,680 9.2 23.4°
Reaches altitude 10° 20:51:26 10° 186° (S) 2,678 8.0 22.8°
Maximum altitude 20:54:13 13° 160° (SSE) 2,430 7.4 22.4°
Drops below altitude 10° 20:56:58 10° 133° (SE) 2,629 7.2 21.9°
Sets 21:01:07 0° 107° (ESE) 3,552 7.6 21.3°
